Stations météo

Publicité
Fehmarnbelt/Grosstonne, Allemagne (10043): Température de l'air & dewpoint: 19.09.2018 17:00:00 - 25.09.2018 17:00:00 (CEST)Fehmarnbelt/Grosstonne, Allemagne (10043): water temperature: 19.09.2018 17:00:00 - 25.09.2018 17:00:00 (CEST)Fehmarnbelt/Grosstonne, Allemagne (10043): reduced air pressure: 19.09.2018 17:00:00 - 25.09.2018 17:00:00 (CEST)
Date & Time tt [°C] td [°C] tw [°C] ppp [hPa]
25.09.2018 17:00:00 - - - -
25.09.2018 16:00:00 13,9 5,5 15,2 1036,3
25.09.2018 15:00:00 13,2 5,0 15,2 1036,5
25.09.2018 14:00:00 13,2 5,7 15,0 1036,9
25.09.2018 13:00:00 12,7 4,0 15,1 1036,9
25.09.2018 12:00:00 12,0 4,2 14,9 1036,6
25.09.2018 11:00:00 11,4 3,7 14,8 1036,2
25.09.2018 10:00:00 11,0 4,0 14,7 1035,5
25.09.2018 09:00:00 10,7 4,5 14,4 1034,5
25.09.2018 08:00:00 10,5 4,7 14,6 1033,9
25.09.2018 07:00:00 10,5 4,5 14,6 1033,3
25.09.2018 06:00:00 10,5 5,0 14,4 1032,6
25.09.2018 05:00:00 10,7 5,0 14,4 1032,2
25.09.2018 04:00:00 10,7 6,0 14,4 1031,6
25.09.2018 03:00:00 10,5 5,7 14,5 1031,1
25.09.2018 02:00:00 10,7 5,5 14,5 1030,8
25.09.2018 01:00:00 10,7 5,2 14,6 1030,3
25.09.2018 00:00:00 10,9 5,7 14,6 1029,6
24.09.2018 23:00:00 10,9 5,4 14,6 1028,9
24.09.2018 22:00:00 11,0 5,0 14,7 1028,0
24.09.2018 21:00:00 11,4 4,5 14,8 1027,2
24.09.2018 20:00:00 11,7 4,7 14,8 1026,4
24.09.2018 19:00:00 12,0 5,4 14,9 1025,7
24.09.2018 18:00:00 12,0 4,7 15,0 1025,1
24.09.2018 17:00:00 12,7 5,5 15,0 1024,6
24.09.2018 16:00:00 12,5 3,4 15,0 1024,1
24.09.2018 15:00:00 12,7 4,0 15,0 1023,9
24.09.2018 14:00:00 12,5 4,5 15,0 1023,5
24.09.2018 13:00:00 12,5 4,0 15,0 1023,1
24.09.2018 12:00:00 12,4 5,2 15,0 1022,6
24.09.2018 11:00:00 11,9 5,9 15,0 1021,9
24.09.2018 10:00:00 11,5 5,0 14,9 1020,7
24.09.2018 09:00:00 11,7 6,0 15,0 1019,5
24.09.2018 08:00:00 11,4 5,2 15,0 1018,1
24.09.2018 07:00:00 11,5 6,0 15,0 1017,3
24.09.2018 06:00:00 11,5 6,2 15,0 1016,5
24.09.2018 05:00:00 11,7 6,2 15,0 1015,7
24.09.2018 04:00:00 11,7 6,2 15,0 1014,8
24.09.2018 03:00:00 11,7 5,4 15,0 1014,3
24.09.2018 02:00:00 11,7 5,9 15,1 1013,5
24.09.2018 01:00:00 12,0 6,2 15,1 1012,7
24.09.2018 00:00:00 12,0 6,7 15,1 1011,9
23.09.2018 23:00:00 12,2 6,9 15,1 1011,1
23.09.2018 22:00:00 12,4 6,7 15,4 1010,4
23.09.2018 21:00:00 12,7 6,0 15,5 1009,4
23.09.2018 20:00:00 13,0 7,0 15,7 1008,6
23.09.2018 19:00:00 13,2 6,7 15,8 1008,0
23.09.2018 18:00:00 13,2 6,5 15,8 1008,3
23.09.2018 17:00:00 13,4 6,5 15,7 1008,8
23.09.2018 16:00:00 13,2 6,7 15,7 1009,0
23.09.2018 15:00:00 13,2 7,0 15,7 1009,9
23.09.2018 14:00:00 13,4 6,9 15,7 1010,1
23.09.2018 13:00:00 13,5 8,0 15,7 1010,7
23.09.2018 12:00:00 13,2 8,7 15,7 1011,5
23.09.2018 11:00:00 13,2 8,4 15,7 1011,6
23.09.2018 10:00:00 12,9 8,9 15,7 1011,8
23.09.2018 09:00:00 12,5 9,0 15,7 1011,7
23.09.2018 08:00:00 12,9 8,9 15,7 1011,5
23.09.2018 07:00:00 12,7 8,9 15,8 1011,4
23.09.2018 06:00:00 12,5 9,0 15,9 1011,5
23.09.2018 05:00:00 12,7 9,0 16,0 1011,8
23.09.2018 04:00:00 12,4 9,0 16,1 1012,1
23.09.2018 03:00:00 12,9 8,9 16,1 1012,2
23.09.2018 02:00:00 13,0 9,2 16,2 1012,3
23.09.2018 01:00:00 13,4 8,9 16,2 1012,4
23.09.2018 00:00:00 13,4 8,9 16,3 1012,6
22.09.2018 23:00:00 13,4 7,9 16,2 1012,4
22.09.2018 22:00:00 14,0 7,4 16,1 1012,4
22.09.2018 21:00:00 14,0 7,7 16,1 1012,2
22.09.2018 20:00:00 14,4 6,3 16,3 1011,8
22.09.2018 19:00:00 14,0 8,2 16,3 1011,9
22.09.2018 18:00:00 14,7 6,5 16,4 1011,8
22.09.2018 17:00:00 14,2 10,2 16,3 1012,0
22.09.2018 16:00:00 15,5 7,7 16,3 1012,0
22.09.2018 15:00:00 14,9 8,4 16,3 1012,1
22.09.2018 14:00:00 15,0 9,7 16,3 1011,6
22.09.2018 13:00:00 13,5 10,5 16,3 1011,6
22.09.2018 12:00:00 14,7 9,9 16,3 1011,8
22.09.2018 11:00:00 13,4 10,2 16,3 1012,4
22.09.2018 10:00:00 13,9 9,5 16,3 1011,8
22.09.2018 09:00:00 13,9 10,0 16,3 1011,4
22.09.2018 08:00:00 13,5 9,2 16,3 1010,8
22.09.2018 07:00:00 13,2 9,2 16,3 1010,2
22.09.2018 06:00:00 13,0 9,5 16,3 1009,5
22.09.2018 05:00:00 12,9 9,4 16,3 1008,7
22.09.2018 04:00:00 12,5 9,5 16,4 1008,0
22.09.2018 03:00:00 12,0 10,4 16,5 1007,7
22.09.2018 02:00:00 11,9 8,7 16,5 1006,7
22.09.2018 01:00:00 12,5 9,0 16,6 1006,1
22.09.2018 00:00:00 13,0 8,2 16,6 1005,6
21.09.2018 23:00:00 12,7 8,4 16,6 1004,8
21.09.2018 22:00:00 12,9 7,4 16,6 1004,2
21.09.2018 21:00:00 14,0 7,7 16,5 1004,2
21.09.2018 20:00:00 14,0 7,7 16,6 1003,5
21.09.2018 19:00:00 14,5 9,2 16,7 1002,8
21.09.2018 18:00:00 15,2 9,2 16,8 1002,3
21.09.2018 17:00:00 16,0 10,4 16,9 1001,5
21.09.2018 16:00:00 16,0 10,0 17,0 1000,6
21.09.2018 15:00:00 15,4 12,2 17,0 1000,6
21.09.2018 14:00:00 15,5 13,5 17,1 999,6
21.09.2018 13:00:00 20,2 13,9 17,2 998,2
21.09.2018 12:00:00 23,0 13,4 17,3 997,7
21.09.2018 11:00:00 21,5 14,4 17,3 997,9
21.09.2018 10:00:00 20,7 14,5 17,2 998,8
21.09.2018 09:00:00 19,7 14,0 17,2 1000,0
21.09.2018 08:00:00 19,0 14,0 17,2 1001,0
21.09.2018 07:00:00 18,7 13,2 17,2 1002,0
21.09.2018 06:00:00 19,0 12,9 17,2 1003,6
21.09.2018 05:00:00 18,7 14,0 17,2 1004,5
21.09.2018 04:00:00 18,5 14,5 17,2 1005,4
21.09.2018 03:00:00 18,4 14,7 17,2 1006,8
21.09.2018 02:00:00 18,5 14,5 17,2 1007,7
21.09.2018 01:00:00 18,2 15,0 17,2 1008,8
21.09.2018 00:00:00 18,2 14,7 17,1 1009,8
20.09.2018 23:00:00 18,4 15,0 17,3 1010,6
20.09.2018 22:00:00 19,2 14,5 17,5 1011,1
20.09.2018 21:00:00 19,7 15,0 17,5 1011,4
20.09.2018 20:00:00 19,0 16,0 17,4 1011,7
20.09.2018 19:00:00 19,9 15,5 17,7 1011,9
20.09.2018 18:00:00 19,7 15,7 17,6 1012,5
20.09.2018 17:00:00 21,0 15,7 17,6 1012,7
20.09.2018 16:00:00 20,7 16,2 17,5 1013,2
20.09.2018 15:00:00 19,5 15,7 17,4 1013,6
20.09.2018 14:00:00 20,0 15,5 17,3 1013,6
20.09.2018 13:00:00 19,9 15,4 17,4 1013,7
20.09.2018 12:00:00 20,5 15,5 17,3 1014,3
20.09.2018 11:00:00 20,2 15,0 17,1 1014,6
20.09.2018 10:00:00 19,4 14,5 17,0 1014,3
20.09.2018 09:00:00 18,7 14,4 17,0 1014,4
20.09.2018 08:00:00 18,0 14,4 17,0 1014,5
20.09.2018 07:00:00 18,0 14,5 17,0 1014,2
20.09.2018 06:00:00 18,0 14,7 17,2 1014,0
20.09.2018 05:00:00 18,4 14,9 17,3 1014,0
20.09.2018 04:00:00 18,7 14,7 17,3 1013,9
20.09.2018 03:00:00 19,0 14,5 17,4 1013,7
20.09.2018 02:00:00 19,2 14,7 17,4 1014,0
20.09.2018 01:00:00 19,5 14,7 17,4 1014,1
20.09.2018 00:00:00 19,4 15,2 17,4 1014,3
19.09.2018 23:00:00 18,7 15,9 17,5 1014,6
19.09.2018 22:00:00 18,4 16,5 17,5 1014,5
19.09.2018 21:00:00 18,9 16,2 17,5 1014,3
19.09.2018 20:00:00 19,9 15,5 17,6 1013,4
19.09.2018 19:00:00 19,5 16,0 17,6 1013,5
19.09.2018 18:00:00 22,2 15,0 17,7 1013,4
19.09.2018 17:00:00 23,4 15,0 17,9 1013,8

tt = Température de l'air
td = dewpoint
tw = water temperature
ppp = reduced air pressure

stations d'obs. à proximité